Starlink 31546

operational
NORAD ID: 59470 Int'l Des: 2024-068 Owner: SPXS Country: US Constellation: starlink
LEOCIRCULAR

About Starlink 31546

Description loading...

Live Position

Loading 3D Globe...

Upcoming Passes

Altitude History

Altitude vs Time

uPlot chart will show altitude changes over time

Two-Line Element Set

1 59470U 24068R 25350.70862870 .00014311 00000-0 52845-3 0 9995
2 59470 42.9982 139.5347 0001328 254.5339 105.5366 15.27587319 95871
Epoch: Dec 16, 2025 • Age: 15 hours

Current Status

Altitude 482.1 km
Velocity 7.63 km/s
Sub-Earth Point 5.57°N, 105.68°E
Launch Date Apr 10, 2024
Age 1.6 years
Type internet

Technical Details

Classification Payload
Mass 730.00 kg
Dry Mass 700.00 kg
Total Mass 730.00 kg
Length 0.30 m
Diameter 4.10 m
Span 29.00 m
Shape Box + pan
Manufacturer SPXS
Bus Type Starlink V2M
Phase Status In Orbit
Owner/State SPXS/US

Large Constellations

Loading constellations...